Location: Unspecified
(49.8670°N, 0.0000°E)
Time: 04:09:17
(UTC+00:00)

S-56A Canister/Altair - Pass Details

Date: 18 June 2019
Orbit: 632 x 2500 km, 38.9° (Epoch: 19 July)

Event Time Altitude Azimuth Distance (km) Brightness Sun altitude
Rises 15:44:28 0° 204° (SSW) 4,789 12.0 39.5°
Reaches altitude 10° 15:49:58 10° 182° (S) 3,346 11.0 38.6°
Maximum altitude 15:53:32 14° 155° (SSE) 2,781 10.4 38.1°
Drops below altitude 10° 15:56:37 10° 127° (SE) 2,785 10.1 37.6°
Sets 16:00:22 0° 101° (E) 3,434 10.4 37.0°
